User: anonymous   Login
Location: Unspecified
(0.0000°N, 0.0000°E)
Time: 10:06:16
(UTC+00:00)
Language:

3CAT-2 - Orbit

View from above orbital plane
View from above orbital plane
View from above satellite
View from above satellite

Ground track
Ground track

The orbit data is extracted from the following two-line orbital elements,

1 41732U 16051B   21340.66432469  .00004254  00000-0  14913-3 0  9996
2 41732  97.3803 259.5522 0010590 257.7783 147.1527 15.29956366295828
Epoch (UTC): 06 December 2021 15:56:37
Eccentricity: 0.0010590
inclination: 97.3803°
perigee height: 468 km
apogee height: 483 km
right ascension of ascending node: 259.5522°
argument of perigee: 257.7783°
revolutions per day: 15.29956366
mean anomaly at epoch: 147.1527°
orbit number at epoch: 29582

The dashed part of the orbit path shows where the satellite is in the earth's shadow,  

DLR